Regional Weather Roundup
Issued by NWS

Home | Current Version | Previous Version | Graphics & Text | Print | Product List | Glossary On
Versions: 1 2 3 4 5 6 7 8 9 10 11 12 13 14 15 16 17 18 19 20 21 22 23 24 25 26 27 28 29 30 31 32 33 34 35 36 37 38 39 40 41 42 43 44 45 46 47 48 49 50
000
ASUS44 KMEG 170210
RWRTN
TENNESSEE HOURLY STATE WEATHER ROUNDUP
NATIONAL WEATHER SERVICE MEMPHIS TN
800 PM CST TUE JAN 16 2018

TNZ002-004-019-021-049-052-054-088>092-170300-
WEST TENNESSEE

CITY           SKY/WX    TMP DP  RH WIND       PRES   REMARKS
MEMPHIS INTL   FAIR      12   2  64 N6        30.69R WCI   3
NWS MEMPHIS      N/A     10 N/A N/A MISG        N/A
JACKSON        FAIR       5  -3  69 NW5       30.68R WCI  -4
DYERSBURG      CLOUDY     6  -1  73 CALM      30.71R
SOMERVILLE     MOCLDY     7  -2  66 CALM      30.67R
COVINGTON      CLOUDY     1  -4  78 W3        30.70S
UNION CITY     CLOUDY     5   0  78 CALM      30.69S
BOLIVAR        MOCLDY     7  -2  66 NW5       30.66S WCI  -2
PARIS          CLOUDY     3  -2  78 CALM      30.65S
HUNTINGDON     CLOUDY     1  -4  78 CALM      30.65S
LEXINGTON      CLEAR      9  -2  61 NW8       30.65R WCI  -4
SELMER         CLEAR      7   0  72 VRB3      30.64R
SAVANNAH       PTCLDY    10   1  67 N7        30.64R WCI   0
$$

TNZ008-025-027-028-033-062-065-066-170300-
NORTH MIDDLE TENNESSEE

CITY           SKY/WX    TMP DP  RH WIND       PRES   REMARKS
NASHVILLE      FAIR      10   0  63 N7        30.63R WCI  -1
PORTLAND       MOCLDY     1  -2  85 N5        30.60R WCI  -8
CLARKSVILLE    CLOUDY     6  -4  63 N8        30.64R WCI  -7
SMYRNA         FAIR       7   1  76 N7        30.64R WCI  -5
COOKEVILLE     CLOUDY     3   1  92 CALM      30.55R
GALLATIN       PTCLDY     7   0  72 NW5       30.66R WCI  -2
CROSSVILLE     CLOUDY     7   2  80 NW6       30.45R WCI  -3
$$

TNZ061-075-076-078-094-096-097-170300-
SOUTH MIDDLE TENNESSEE

CITY           SKY/WX    TMP DP  RH WIND       PRES   REMARKS
FAYETTEVILLE   PTCLDY    12   7  79 N7        30.53S WCI   2
TULLAHOMA      CLEAR      7   3  85 N7        30.53S WCI  -5
WINCHESTER       N/A      9   5  85 N6        30.54F WCI  -1
MCMINNVILLE    PTCLDY     5   0  78 CALM      30.56R
COLUMBIA       CLOUDY    10   1  67 CALM      30.58S
SHELBYVILLE    CLEAR      7   1  78 N9        30.58S WCI  -7
$$

TNZ017-018-042-046-047-170300-
NORTHEAST TENNESSEE

CITY           SKY/WX    TMP DP  RH WIND       PRES   REMARKS
TRI CITIES     LGT SNOW  27  25  92 W9        30.37R FOG     WCI  18
ELIZABETHTON   LGT SNOW  28  27  93 W9G15     30.35R WCI  20
$$

TNZ012-013-036-069-073-074-170300-
CENTRAL EAST TENNESSEE

CITY           SKY/WX    TMP DP  RH WIND       PRES   REMARKS
KNOXVILLE      CLOUDY    20  14  77 N8        30.47R FOG     WCI  10
OAK RIDGE      CLOUDY    20   9  62 VRB3      30.49R
DOWNTOWN KNOXV CLOUDY    21  14  73 VRB3      30.49S
GATLINBURG     CLOUDY    21  18  86 NW7       30.46R WCI  13
MORRISTOWN     CLOUDY    19  16  86 NW10      30.42R WCI   8
JACKSBORO      CLOUDY    14   7  73 CALM      30.52R
$$

TNZ083-085-099-170300-
SOUTHEAST TENNESSEE

CITY           SKY/WX    TMP DP  RH WIND       PRES   REMARKS
CHATTANOOGA    CLOUDY    21  12  68 N13       30.51R WCI   9
DAYTON         CLOUDY    18  12  79 NW6G12    30.52R WCI   9
$$

SKY/WX REPORTED AS FAIR MEANS FEW OR NO CLOUDS BELOW
12 THOUSAND FEET.




USA.gov is the U.S. government's official web portal to all federal, state and local government web resources and services.